Spokane, WA
on Monday, January 28, 2013

Monday
Previous Day Next Day
Daily Summary
 ActualAverageRecord
Temperature
Mean Temperature °F 31°F  
Max Temperature 31°F 36°F 58°F (1931)
Min Temperature 27°F 26°F -17°F (1882)
Degree Days
Heating Degree Days 36 34  
Month to date heating degree days 1152 997  
Since 1 July heating degree days 3577 3831  
Cooling Degree Days 0 0  
Month to date cooling degree days 0 0  
Year to date cooling degree days 0 0  
Moisture
Dew Point 27°F   
Average Humidity 92    
Maximum Humidity 92    
Minimum Humidity 92    
Precipitation
Precipitation 0.05 in 0.05 in 0.44 in (1888)
Month to date precipitation 1.51 1.65  
Year to date precipitation 1.51 1.65  
Snow
Snow 0.70 in 0.30 in 2.80 in (1929)
Month to date snowfall 13.2 10.6  
Since 1 July snowfall 37.2 32.7  
Snow Depth 1.00 in   
Wind
Wind Speed 8 mph   
Max Wind Speed 16 mph   
Max Gust Speed 21 mph   
Visibility 3 miles   
Events Snow   

Key: T is trace of precipitation, MM is missing value
Source: NWS Daily Summary
Time(PST)TemperatureDew PointHumidity Pressure Visibility Wind DirectionWind SpeedGust SpeedPrecipitationEvents Conditions
12:53 AM 30.9°F 28.9°F 92% 29.94 in 2.0 miles South 5.8 mph - 0.02 in Snow Light Snow
1:53 AM 30.9°F 28.0°F 89% 29.94 in 2.0 miles South 8.1 mph - 0.01 in Snow Light Snow
2:53 AM 30.0°F 28.0°F 92% 29.94 in 2.0 miles SSW 8.1 mph - 0.00 in Snow Light Snow
3:53 AM 30.0°F 28.0°F 92% 29.94 in 2.0 miles SW 12.7 mph - 0.00 in   Overcast
4:53 AM 30.0°F 28.0°F 92% 29.94 in 10.0 miles SW 13.8 mph - N/A   Overcast
5:53 AM 30.0°F 28.0°F 92% 29.94 in 10.0 miles SW 9.2 mph - N/A   Overcast
6:53 AM 30.0°F 28.0°F 92% 29.94 in 10.0 miles SSW 11.5 mph - N/A   Overcast
7:46 AM 30.2°F 28.4°F 93% 29.87 in 1.0 miles SW 11.5 mph - 0.00 in   Overcast
7:53 AM 30.0°F 28.0°F 92% 29.94 in 0.5 miles SW 9.2 mph - N/A   Overcast
8:53 AM 30.0°F 28.0°F 92% 29.94 in 0.5 miles SSW 11.5 mph - 0.00 in Snow Light Snow
8:57 AM 30.2°F 28.4°F 93% 29.87 in 1.5 miles SSW 11.5 mph - 0.00 in Snow Light Snow
8:58 AM 30.2°F 28.4°F 93% 29.87 in 2.0 miles SSW 11.5 mph - 0.00 in   Overcast
9:32 AM 30.2°F 28.4°F 93% 29.87 in 3.0 miles SSW 11.5 mph - 0.00 in   Overcast
9:53 AM 30.9°F 28.0°F 89% 29.92 in 8.0 miles SW 11.5 mph - 0.00 in   Overcast
10:53 AM 30.0°F 28.0°F 92% 29.92 in 10.0 miles WSW 12.7 mph - N/A   Overcast
11:17 AM 28.4°F 26.6°F 93% 29.86 in 1.0 miles WSW 11.5 mph - N/A   Overcast
11:53 AM 28.0°F 26.1°F 92% 29.93 in 1.0 miles SW 13.8 mph - N/A   Overcast
12:31 PM 26.6°F 24.8°F 93% 29.86 in 3.0 miles West 11.5 mph - N/A   Overcast
12:53 PM 27.0°F 25.0°F 92% 29.93 in 3.0 miles WSW 10.4 mph - N/A   Overcast
1:42 PM 26.6°F 24.8°F 93% 29.86 in 1.0 miles WSW 8.1 mph - N/A   Overcast
1:53 PM 27.0°F 25.0°F 92% 29.93 in 2.0 miles WSW 9.2 mph - N/A   Overcast
2:03 PM 26.6°F 24.8°F 93% 29.86 in 3.0 miles WSW 8.1 mph - N/A   Overcast
2:34 PM 26.6°F 26.6°F 100% 29.86 in 1.0 miles WSW 5.8 mph - N/A   Overcast
2:40 PM 26.6°F 26.6°F 100% 29.86 in 0.5 miles WSW 4.6 mph - 0.00 in Snow Light Snow
2:53 PM 27.0°F 26.1°F 96% 29.93 in 1.0 miles WSW 5.8 mph - 0.00 in Snow Light Snow
3:28 PM 26.6°F 24.8°F 93% 29.85 in 3.0 miles SW 5.8 mph - 0.00 in   Overcast
3:53 PM 27.0°F 26.1°F 96% 29.91 in 2.0 miles SW 6.9 mph - 0.00 in   Overcast
4:06 PM 28.4°F 26.6°F 93% 29.84 in 5.0 miles SW 6.9 mph - N/A   Overcast
4:53 PM 28.0°F 26.1°F 92% 29.91 in 0.8 miles SW 11.5 mph - N/A   Overcast
5:53 PM 28.0°F 26.1°F 92% 29.91 in 2.0 miles SSW 6.9 mph - 0.00 in Snow Light Snow
6:01 PM 28.4°F 26.6°F 93% 29.84 in 2.0 miles SSW 5.8 mph - 0.00 in Snow Light Snow
6:37 PM 28.4°F 26.6°F 93% 29.84 in 2.0 miles SSW 8.1 mph - 0.01 in Snow Light Snow
6:53 PM 28.9°F 27.0°F 92% 29.90 in 2.0 miles South 4.6 mph - 0.01 in Snow Light Snow
7:53 PM 28.9°F 27.0°F 92% 29.88 in 2.0 miles SE 4.6 mph - 0.01 in Snow Light Snow
8:53 PM 30.0°F 28.0°F 92% 29.88 in 7.0 miles Calm Calm - 0.00 in   Overcast
9:53 PM 30.9°F 28.9°F 92% 29.87 in 4.0 miles WSW 3.5 mph - 0.00 in Snow Light Snow
10:53 PM 30.9°F 28.9°F 92% 29.87 in 7.0 miles WSW 3.5 mph - 0.00 in   Overcast
11:53 PM 30.0°F 28.0°F 92% 29.90 in 5.0 miles Calm Calm - N/A   Overcast
Moon Phase
Jan. 28 Feb. 03 Feb. 10 Feb. 17 Feb. 25
Sunrise:07:21 AM (PST) Moon Rise:06:57 PM (PST)1/28
Sunset:04:45 PM (PST) Moon Set:07:38 AM (PST)1/28

Copyright © 2014 The Weather Underground, Inc.